[[{"header":{"parameterUnit":"m.s-1","parameterCategory":1,"la1":30.2991,"la2":30.254,"lo1":-89.0895,"lo2":-89.0444,"dy":0.0017,"dx":0.0017,"nx":28,"ny":28,"refTime":"2023-09-02T21:00:00:Z","depth":0,"parameterNumber":2,"parameterNumberName":"U-component_of_WINDS"},"data":[0,0,0,0,0,0,0,0,0,0,0,0,0,0,0,0,0,0,0,0,0,0,0,0,0,0,0,0,0,0,0,0,0,0,0,0,0,0,0,0,0,0,0,0,0,0,0,0,0,0,0,0,0,0,0,0,0,0,-2.6213,-2.6214,0,-2.6301,-2.6302,-2.6303,-2.6314,-2.6313,-2.6312,-2.6311,-2.6401,-2.6404,-2.6407,0,0,0,0,0,0,0,0,0,0,0,0,0,-2.6054,-2.6057,-2.6213,-2.6214,-2.6215,-2.6301,-2.6302,-2.6303,-2.6314,-2.6313,-2.6312,-2.6311,-2.64,-2.6404,-2.6407,0,0,0,0,0,0,0,0,0,0,0,0,0,-2.613,-2.6058,-2.6212,-2.6231,-2.6233,-2.63,-2.6302,-2.6303,-2.6314,-2.6313,-2.6312,-2.631,-2.6399,-2.6403,-2.6408,-2.6463,0,0,-2.6423,-2.6425,0,0,0,0,0,0,0,0,-2.6126,-2.6136,-2.6227,-2.6229,-2.6232,-2.6295,-2.6279,-2.6357,-2.6314,-2.6283,-2.6311,-2.631,-2.6367,-2.6374,-2.6393,-2.6467,-2.6471,-2.6423,-2.6426,-2.6428,-2.6429,0,0,0,0,0,0,0,-2.6121,-2.6132,-2.6247,-2.6228,-2.6231,-2.6234,-2.6244,-2.6294,-2.6331,-2.6286,-2.6287,-2.6297,-2.6368,-2.6389,-2.6396,-2.6473,-2.6423,-2.6427,-2.643,-2.6432,-2.6597,-2.6598,0,0,0,0,0,0,-2.6112,-2.6128,-2.6245,-2.625,-2.6175,-2.6238,-2.6249,-2.6276,-2.6331,-2.6338,-2.6298,-2.6297,-2.6381,-2.639,-2.6399,-2.6466,-2.6428,-2.6432,-2.6435,-2.6595,-2.6597,-2.6598,0,0,0,0,0,0,-2.6109,-2.6122,-2.6241,-2.6189,-2.6205,-2.6242,-2.6273,-2.6279,-2.6299,-2.634,-2.6347,-2.6313,-2.6381,-2.6392,-2.6447,-2.647,-2.6435,-2.6439,-2.6593,-2.6596,-2.6598,-2.6602,0,0,0,0,0,0,-2.6104,-2.6121,-2.6142,-2.619,-2.6207,-2.6288,-2.6274,-2.6281,-2.6308,-2.6307,-2.6355,-2.6362,-2.638,-2.644,-2.6452,-2.6476,-2.6443,-2.6591,-2.6594,-2.6597,-2.66,-2.6604,-2.6608,0,0,0,0,0,-2.6098,-2.614,-2.6143,-2.6157,-2.6235,-2.6289,-2.6299,-2.632,-2.6309,-2.6331,-2.6357,-2.636,-2.6466,-2.6446,-2.6459,-2.6484,-2.659,-2.6593,-2.6597,-2.6598,-2.6603,-2.6608,0,0,0,0,0,0,-2.6093,-2.6146,-2.6151,-2.6209,-2.6244,-2.6291,-2.6318,-2.6325,-2.6364,-2.6362,-2.6386,-2.6397,-2.6451,-2.6474,-2.645,-2.6541,-2.6527,-2.6533,-2.6523,-2.6529,-2.6532,-2.6525,-2.6447,0,0,0,0,0,-2.6099,-2.6139,-2.6183,-2.623,-2.6248,-2.628,-2.6305,-2.6318,-2.6356,-2.6371,-2.6401,-2.6437,-2.6479,-2.6505,-2.6546,-2.6604,-2.6615,-2.6629,-2.6633,-2.6636,-2.664,-2.6672,-2.6679,-2.661,-2.661,-2.661,0,0,-2.6111,-2.6145,-2.6169,-2.623,-2.6259,-2.63,-2.6293,-2.6336,-2.6366,-2.6377,-2.6431,-2.6455,-2.6497,-2.6554,-2.6581,-2.6575,-2.6662,-2.664,-2.6642,-2.6645,-2.6676,-2.6683,-2.6689,-2.6612,-2.6611,-2.6611,0,0,-2.6153,-2.6184,-2.6226,-2.6255,-2.63,-2.6321,-2.6331,-2.6378,-2.6394,-2.6448,-2.6457,-2.6494,-2.6565,-2.6595,-2.6619,-2.6674,-2.6678,-2.6687,-2.6706,-2.6737,-2.6743,-2.6748,-2.6766,-2.6773,-2.6692,-2.6692,-2.6692,0,-2.6162,-2.6224,-2.6246,-2.6289,-2.6316,-2.6329,-2.6372,-2.64,-2.6455,-2.6473,-2.6466,-2.6556,-2.6585,-2.6649,-2.6662,-2.6682,-2.6694,-2.668,-2.674,-2.6745,-2.675,-2.6768,-2.6775,-2.6693,-2.6692,-2.6692,-2.6692,0,-2.6232,-2.6275,-2.6304,-2.6357,-2.6387,-2.643,-2.6459,-2.6487,-2.6499,-2.6521,-2.6576,-2.6613,-2.666,-2.6677,-2.6688,-2.6743,-2.6738,-2.6735,-2.6721,-2.6757,-2.6774,-2.6781,-2.6693,-2.6693,-2.6693,-2.6693,0,0,-2.6271,-2.6338,-2.6348,-2.6372,-2.6423,-2.6456,-2.65,-2.6547,-2.657,-2.6609,-2.6645,-2.6706,-2.6704,-2.6732,-2.6747,-2.6775,-2.6815,-2.6769,-2.6771,-2.6775,-2.6877,-2.6876,-2.6884,-2.6819,-2.6821,-2.6822,-2.6872,0,-2.6318,-2.6395,-2.6418,-2.6483,-2.6523,-2.6537,-2.6575,-2.661,-2.6633,-2.667,-2.6695,-2.6737,-2.6732,-2.6749,-2.6777,-2.6804,-2.6836,-2.6801,-2.6853,-2.6854,-2.6839,-2.6893,-2.6893,-2.6939,-2.6879,-2.6881,-2.6882,0,-2.6382,-2.6422,-2.6491,-2.6537,-2.6554,-2.6588,-2.6633,-2.6669,-2.6709,-2.6724,-2.6756,-2.6769,-2.6815,-2.68,-2.6864,-2.684,-2.6863,-2.688,-2.6882,-2.6886,-2.6868,-2.6897,-2.6954,-2.696,-2.6893,-2.6892,-2.6891,0,-2.6402,-2.6473,-2.6523,-2.6544,-2.6599,-2.6622,-2.6647,-2.6686,-2.6713,-2.6753,-2.6771,-2.6816,-2.684,-2.6875,-2.69,-2.6887,-2.6961,-2.6949,-2.6974,-2.6973,-2.6986,-2.6985,-2.7046,-2.7005,-2.7005,-2.7004,-2.7004,0,-2.645,-2.6491,-2.6533,-2.6563,-2.661,-2.6637,-2.6683,-2.6708,-2.6743,-2.6779,-2.6795,-2.6828,-2.686,-2.6898,-2.6918,-2.6967,-2.6978,-2.6991,-2.6995,-2.6988,-2.6986,-2.7002,-2.6999,-2.7006,-2.7006,-2.7005,-2.7005,0,-2.6479,-2.6508,-2.6564,-2.6612,-2.6625,-2.6658,-2.6699,-2.673,-2.6754,-2.6799,-2.6811,-2.6849,-2.6894,-2.6923,-2.6981,-2.6995,-2.7048,-2.7053,-2.7034,-2.7036,-2.7058,-2.7055,-2.713,-2.7141,-2.7094,-2.7094,-2.7095,0,-2.6507,-2.6539,-2.6591,-2.6616,-2.664,-2.6681,-2.6709,-2.6737,-2.6765,-2.6815,-2.6839,-2.6886,-2.6924,-2.6996,-2.7029,-2.7073,-2.7078,-2.7101,-2.7084,-2.7076,-2.7076,-2.7073,-2.7076,-2.7103,-2.7103,-2.7104,-2.7104,0,-2.6553,-2.6566,-2.6605,-2.665,-2.6683,-2.672,-2.6756,-2.6776,-2.681,-2.6842,-2.6888,-2.6918,-2.6978,-2.7024,-2.7071,-2.7096,-2.7106,-2.7109,-2.7117,-2.7109,-2.7096,-2.7102,-2.704,-2.7107,-2.7106,-2.7106,-2.7106,-2.7106,-2.6581,-2.661,-2.6651,-2.6694,-2.6725,-2.6759,-2.679,-2.6819,-2.6858,-2.6908,-2.6923,-2.6972,-2.7012,-2.7077,-2.7104,-2.7142,-2.7139,-2.7151,-2.7153,-2.7155,-2.7155,-2.7092,-2.7151,-2.7151,-2.7151,-2.7151,-2.7151,0,-2.6626,-2.6653,-2.6693,-2.6744,-2.6779,-2.6786,-2.6827,-2.6855,-2.6898,-2.6935,-2.6973,-2.7027,-2.7072,-2.7108,-2.7155,-2.7178,-2.7184,-2.7189,-2.7187,-2.7192,-2.7156,-2.7143,-2.7184,-2.7184,-2.7184,-2.7184,-2.7184,-2.7184,-2.6653,-2.6703,-2.6721,-2.6786,-2.6814,-2.6861,-2.6884,-2.6916,-2.6946,-2.7005,-2.7042,-2.7066,-2.7104,-2.7153,-2.7194,-2.7204,-2.722,-2.7224,-2.7234,-2.7199,-2.7195,-2.7191,-2.718,-2.7228,-2.7228,-2.7268,-2.7268,-2.7269]},{"header":{"parameterUnit":"m.s-1","parameterCategory":1,"la1":30.2991,"la2":30.254,"lo1":-89.0895,"lo2":-89.0444,"dy":0.0017,"dx":0.0017,"nx":28,"ny":28,"refTime":"2023-09-02T21:00:00:Z","depth":0,"parameterNumber":3,"parameterNumberName":"V-component_of_WINDS"},"data":[0,0,0,0,0,0,0,0,0,0,0,0,0,0,0,0,0,0,0,0,0,0,0,0,0,0,0,0,0,0,0,0,0,0,0,0,0,0,0,0,0,0,0,0,0,0,0,0,0,0,0,0,0,0,0,0,0,0,2.7794,2.7794,0,2.7751,2.775,2.775,2.7677,2.7676,2.7674,2.7673,2.7629,2.763,2.763,0,0,0,0,0,0,0,0,0,0,0,0,0,2.7817,2.7817,2.7794,2.7794,2.7793,2.7751,2.775,2.7749,2.7677,2.7676,2.7674,2.7673,2.7629,2.763,2.763,0,0,0,0,0,0,0,0,0,0,0,0,0,2.7794,2.7817,2.7795,2.7752,2.7748,2.7751,2.775,2.7749,2.7678,2.7676,2.7674,2.7672,2.7629,2.763,2.763,2.7671,0,0,2.763,2.763,0,0,0,0,0,0,0,0,2.7795,2.7793,2.7759,2.7755,2.775,2.7717,2.7742,2.7723,2.7678,2.7704,2.7673,2.7671,2.766,2.7658,2.7654,2.7668,2.7667,2.763,2.763,2.763,2.763,0,0,0,0,0,0,0,2.7797,2.7794,2.7777,2.7759,2.7753,2.7736,2.773,2.7738,2.7694,2.7702,2.7697,2.7692,2.7658,2.7654,2.7652,2.7666,2.763,2.763,2.763,2.763,2.771,2.7712,0,0,0,0,0,0,2.7804,2.7796,2.7778,2.7776,2.7768,2.7737,2.7731,2.773,2.7694,2.7686,2.7694,2.7689,2.7655,2.7652,2.7651,2.7694,2.763,2.763,2.763,2.7708,2.771,2.7713,0,0,0,0,0,0,2.7805,2.7803,2.778,2.7784,2.778,2.7739,2.7738,2.773,2.7726,2.7688,2.768,2.7698,2.7653,2.765,2.7666,2.7692,2.763,2.763,2.7706,2.7709,2.7711,2.7783,0,0,0,0,0,0,2.7806,2.7804,2.7819,2.7785,2.778,2.7796,2.774,2.7731,2.7727,2.772,2.769,2.7683,2.7651,2.7666,2.7666,2.7691,2.7631,2.7703,2.7707,2.7711,2.7778,2.7788,2.7797,0,0,0,0,0,2.7807,2.7842,2.782,2.7818,2.7798,2.7798,2.7795,2.7757,2.7729,2.7743,2.7719,2.7684,2.769,2.7668,2.7667,2.7693,2.7701,2.7706,2.771,2.7774,2.7786,2.7797,0,0,0,0,0,0,2.788,2.7836,2.7812,2.7837,2.7821,2.7785,2.7802,2.7772,2.7764,2.7758,2.7713,2.7707,2.7727,2.7712,2.7689,2.773,2.769,2.7695,2.7738,2.775,2.7759,2.7761,2.7631,0,0,0,0,0,2.7899,2.7902,2.7864,2.7889,2.7883,2.7844,2.7843,2.7815,2.7798,2.7791,2.7767,2.7752,2.775,2.7749,2.7746,2.7776,2.7768,2.7794,2.7803,2.7811,2.7815,2.7828,2.7838,2.7728,2.7728,2.7728,0,0,2.7938,2.7914,2.7919,2.7903,2.7888,2.7892,2.7839,2.7846,2.7848,2.7792,2.7804,2.7787,2.7766,2.7789,2.7798,2.7777,2.7844,2.7817,2.7823,2.7823,2.7834,2.7844,2.7854,2.7731,2.773,2.773,0,0,2.801,2.7994,2.8012,2.7998,2.7975,2.7949,2.7954,2.7923,2.7909,2.792,2.7877,2.788,2.7878,2.7865,2.7858,2.7926,2.7892,2.7926,2.7974,2.7987,2.7996,2.8004,2.8026,2.8034,2.7931,2.7931,2.7931,0,2.8061,2.8065,2.8025,2.8034,2.8028,2.7977,2.7995,2.7984,2.7962,2.7958,2.7936,2.7931,2.7914,2.7932,2.7948,2.7945,2.7948,2.7928,2.7998,2.8005,2.8012,2.8032,2.8041,2.7935,2.7934,2.7934,2.7933,0,2.8128,2.8132,2.815,2.8128,2.8125,2.8138,2.81,2.8101,2.8075,2.8052,2.8063,2.8041,2.8031,2.8034,2.8009,2.8048,2.8036,2.8007,2.7965,2.8027,2.8045,2.8053,2.794,2.7939,2.7938,2.7937,0,0,2.8243,2.82,2.8207,2.8196,2.8168,2.817,2.8182,2.8172,2.8173,2.816,2.8167,2.8167,2.8139,2.8131,2.8104,2.8116,2.8169,2.8085,2.8084,2.8099,2.8209,2.8229,2.8239,2.8148,2.8149,2.815,2.821,0,2.8308,2.8324,2.8289,2.8314,2.8316,2.8268,2.8278,2.8261,2.824,2.8239,2.8216,2.8215,2.818,2.8174,2.8185,2.816,2.819,2.8156,2.8153,2.8153,2.8157,2.8249,2.8271,2.8328,2.8217,2.8218,2.8219,0,2.8385,2.8375,2.84,2.8369,2.8369,2.8378,2.8365,2.8366,2.8346,2.833,2.8321,2.8289,2.8298,2.826,2.827,2.8248,2.8245,2.8233,2.8234,2.8231,2.8188,2.8246,2.8346,2.8354,2.823,2.823,2.8229,0,2.8464,2.8457,2.847,2.8463,2.8429,2.8436,2.8422,2.8401,2.8396,2.8386,2.8382,2.8374,2.8368,2.8362,2.8328,2.8304,2.8342,2.8301,2.8327,2.8328,2.8336,2.8335,2.8434,2.8338,2.8338,2.8338,2.8338,0,2.8539,2.8555,2.8505,2.8513,2.853,2.849,2.8508,2.8489,2.8471,2.8474,2.8433,2.8437,2.8393,2.8392,2.8366,2.8378,2.8376,2.8363,2.8355,2.8365,2.8366,2.836,2.8355,2.834,2.834,2.8339,2.8339,0,2.8629,2.8596,2.8607,2.8573,2.8565,2.8579,2.855,2.8556,2.8533,2.8537,2.8536,2.8499,2.8496,2.8462,2.8452,2.8434,2.8455,2.8441,2.8461,2.8456,2.8483,2.848,2.858,2.859,2.849,2.8491,2.8492,0,2.8677,2.8689,2.8656,2.8655,2.8643,2.8642,2.8638,2.8599,2.8596,2.8574,2.8583,2.8576,2.8568,2.8566,2.8538,2.8529,2.8513,2.8549,2.8512,2.8521,2.8511,2.851,2.851,2.8556,2.8558,2.8559,2.8559,0,2.8766,2.8749,2.8744,2.8733,2.8729,2.8719,2.8706,2.8708,2.8665,2.8663,2.8659,2.8653,2.8642,2.8636,2.8623,2.8608,2.8576,2.8572,2.8577,2.8586,2.8596,2.8589,2.848,2.8569,2.8568,2.8567,2.8567,2.8566,2.8835,2.8842,2.882,2.8816,2.8802,2.8791,2.8794,2.8771,2.8767,2.8755,2.8732,2.8731,2.8711,2.869,2.8678,2.8676,2.8657,2.8666,2.8667,2.8669,2.8674,2.8598,2.8674,2.8674,2.8673,2.8673,2.8673,0,2.892,2.8903,2.89,2.8882,2.8879,2.885,2.8834,2.8833,2.8832,2.8816,2.881,2.8805,2.8798,2.877,2.876,2.8764,2.8749,2.8763,2.8761,2.8757,2.8692,2.8687,2.8775,2.8775,2.8775,2.8775,2.8775,2.8775,2.8963,2.8973,2.8954,2.8957,2.8941,2.8939,2.8932,2.8922,2.8908,2.8904,2.8898,2.888,2.8859,2.8847,2.884,2.8831,2.8829,2.8847,2.8833,2.8772,2.8762,2.8753,2.8748,2.8847,2.8847,2.8899,2.8899,2.89]}]]